This is the latest recevied weather packets stored in our database for station/object K4DNM. If no packets are shown the sender has not sent any weather packets the latest 10 day(s).
| Time | Temp. | Humidity | Pressure | Rain* | Wind** | Luminosity | Snow |
|---|---|---|---|---|---|---|---|
| 1777836176 | 19.44° C | 32% | 1015.9 hPa | 0 mm | - | 804 W/m² | - |
| 1777835817 | 18.89° C | 32% | 1015.9 hPa | 0 mm | - | 820 W/m² | - |
| 1777835577 | 18.89° C | 29% | 1016 hPa | 0 mm | - | 836 W/m² | - |
| 1777835218 | 18.89° C | 34% | 1016.1 hPa | 0 mm | - | 844 W/m² | - |
| 1777834917 | 18.89° C | 32% | 1016 hPa | 0 mm | - | 861 W/m² | - |
| 1777834613 | 18.89° C | 31% | 1016.1 hPa | 0 mm | - | 869 W/m² | - |
| 1777834315 | 18.89° C | 32% | 1016.2 hPa | 0 mm | - | 881 W/m² | - |
| 1777834013 | 18.89° C | 33% | 1016.2 hPa | 0 mm | - | 890 W/m² | - |
| 1777833713 | 18.89° C | 32% | 1016.2 hPa | 0 mm | - | 902 W/m² | - |
| 1777833414 | 18.89° C | 34% | 1016.2 hPa | 0 mm | - | 913 W/m² | - |
| 1777833114 | 18.33° C | 34% | 1016.2 hPa | 0 mm | - | 924 W/m² | - |
| 1777832871 | 18.33° C | 34% | 1016.3 hPa | 0 mm | - | 933 W/m² | - |
| 1777832513 | 18.33° C | 33% | 1016.4 hPa | 0 mm | - | 943 W/m² | - |
| 1777832214 | 18.89° C | 34% | 1016.4 hPa | 0 mm | - | 947 W/m² | - |
| 1777831913 | 18.33° C | 35% | 1016.5 hPa | 0 mm | - | 954 W/m² | - |
| 1777831612 | 18.33° C | 38% | 1016.5 hPa | 0 mm | - | 963 W/m² | - |
| 1777831312 | 17.78° C | 34% | 1016.6 hPa | 0 mm | - | 970 W/m² | - |
| 1777831011 | 18.33° C | 35% | 1016.7 hPa | 0 mm | - | 978 W/m² | - |
| 1777830710 | 18.33° C | 35% | 1016.7 hPa | 0 mm | - | 978 W/m² | - |
| 1777830409 | 18.33° C | 32% | 1016.8 hPa | 0 mm | - | 978 W/m² | - |
| 1777830106 | 17.78° C | 34% | 1016.8 hPa | 0 mm | - | 978 W/m² | - |
| 1777829808 | 17.78° C | 34% | 1016.8 hPa | 0 mm | - | 982 W/m² | - |
| 1777829505 | 18.33° C | 36% | 1016.9 hPa | 0 mm | - | 985 W/m² | - |
| 1777829208 | 17.78° C | 40% | 1016.8 hPa | 0 mm | - | 988 W/m² | - |
| 1777828908 | 17.78° C | 37% | 1016.9 hPa | 0 mm | - | 995 W/m² | - |
* Rain latest hour (hover to see other rain measurements)
** Current wind speed in m/s (hover to see current wind gust speed)